Weather History for KORE - February, 2014

Change the Weather History Date:

Saturday, February 22, 2014

  Actual Average Record
Temperature  
Mean Temperature 37 °F -  
Max Temperature 48 °F 34 °F 64 °F (1997)
Min Temperature 26 °F 15 °F 0 °F (2001)
Degree Days  
Heating Degree Days 28    
Moisture  
Dew Point 25 °F    
Average Humidity 71    
Maximum Humidity 100    
Minimum Humidity 31    
Precipitation  
Precipitation 0.00 in - - ()
Sea Level Pressure  
Sea Level Pressure 29.90 in    
Wind  
Wind Speed 6 mph (SSW)    
Max Wind Speed 21 mph    
Max Gust Speed 28 mph    
Visibility 6 miles    
Events Fog    
Averages and records for this station are not official NWS values.
T = Trace of Precipitation, MM = Missing Value Source: NWS Daily Summary

Daily Weather History Graph

Daily Weather History Graph

Search for Another Location

Airport or City:

Trip Planner

Search our weather history database for the weather conditions in past years. The results will help you decide how hot, cold, wet, or windy it might be!

Date:

Astronomy

Feb. 22, 2014 Rise Set
Actual Time 6:35 AM EST 5:30 PM EST
Civil Twilight 6:07 AM EST 5:58 PM EST
Nautical Twilight 5:34 AM EST 6:31 PM EST
Astronomical Twilight 5:01 AM EST 7:04 PM EST
Moon 12:30 AM EST (2/22) 10:35 AM EST (2/22)
Length of Visible Light 11h 51m
Length of Day
10h 54m
Waning Gibbous, 50% of the Moon is Illuminated
Feb 22
Waning Gibbous
Feb 22
Last Quarter
Mar 1
New
Mar 8
First Quarter
Mar 16
Full

Hourly Weather History & Observations

Time (EST) Temp. Windchill Dew Point Humidity Pressure Visibility Wind Dir Wind Speed Gust Speed Precip Events Conditions
12:49 AM 30.2 °F 23.4 °F 30.2 °F 100% 29.85 in 1.0 mi South 6.9 mph - N/A   Overcast
12:52 AM 30.9 °F 26.2 °F 30.0 °F 96% 29.87 in 1.0 mi South 4.6 mph - N/A   Overcast
1:03 AM 30.9 °F 26.2 °F 30.0 °F 96% 29.85 in 0.8 mi South 4.6 mph - N/A   Overcast
1:52 AM 30.0 °F 26.5 °F 28.9 °F 96% 29.88 in 0.5 mi SSE 3.5 mph - N/A Fog Light Freezing Fog
2:52 AM 28.9 °F - 28.0 °F 96% 29.89 in 0.2 mi Calm Calm - N/A Fog Light Freezing Fog
3:52 AM 28.9 °F 25.2 °F 27.0 °F 92% 29.90 in 0.2 mi South 3.5 mph - N/A Fog Light Freezing Fog
4:52 AM 26.1 °F 20.5 °F 25.0 °F 96% 29.91 in 0.2 mi South 4.6 mph - N/A Fog Light Freezing Fog
5:52 AM 28.0 °F 24.2 °F 27.0 °F 96% 29.94 in 0.2 mi South 3.5 mph - N/A Fog Light Freezing Fog
6:52 AM 26.1 °F 21.9 °F 25.0 °F 96% 29.95 in 0.2 mi North 3.5 mph - N/A Fog Light Freezing Fog
7:52 AM 28.0 °F - 25.0 °F 88% 29.96 in 0.2 mi Calm Calm - N/A Fog Light Freezing Fog
8:23 AM 30.0 °F - 28.0 °F 92% 29.94 in 1.2 mi Calm Calm - N/A   Partly Cloudy
8:25 AM 30.9 °F - 28.0 °F 89% 29.94 in 2.0 mi Calm Calm - N/A   Partly Cloudy
8:33 AM 30.9 °F - 30.0 °F 96% 29.94 in 7.0 mi Calm Calm - N/A   Clear
8:52 AM 32.0 °F 24.2 °F 30.9 °F 96% 29.95 in 10.0 mi SSE 9.2 mph - N/A   Clear
9:52 AM 37.0 °F 31.0 °F 30.9 °F 79% 29.96 in 10.0 mi South 8.1 mph - N/A   Clear
10:52 AM 41.0 °F 35.2 °F 28.0 °F 60% 29.94 in 10.0 mi South 9.2 mph - N/A   Clear
11:52 AM 44.1 °F 35.7 °F 21.9 °F 42% 29.90 in 10.0 mi South 20.7 mph 27.6 mph N/A   Clear
12:52 PM 44.1 °F 37.1 °F 24.1 °F 45% 29.87 in 10.0 mi South 15.0 mph - N/A   Clear
1:52 PM 46.0 °F 41.0 °F 21.9 °F 39% 29.84 in 10.0 mi South 10.4 mph 23.0 mph N/A   Clear
2:52 PM 48.0 °F - 19.9 °F 33% 29.83 in 10.0 mi SSW 10.4 mph - N/A   Clear
3:52 PM 48.9 °F - 19.0 °F 31% 29.84 in 10.0 mi SW 16.1 mph 27.6 mph N/A   Scattered Clouds
4:52 PM 46.9 °F - 19.0 °F 33% 29.86 in 10.0 mi SW 12.7 mph - N/A   Mostly Cloudy
5:52 PM 45.0 °F 38.9 °F 19.9 °F 37% 29.87 in 10.0 mi SSW 12.7 mph - N/A   Partly Cloudy
6:52 PM 42.1 °F 36.1 °F 21.0 °F 43% 29.90 in 10.0 mi SSW 10.4 mph - N/A   Clear
7:52 PM 41.0 °F 34.7 °F 21.0 °F 45% 29.91 in 10.0 mi SSW 10.4 mph - N/A   Clear
8:52 PM 37.9 °F 31.5 °F 21.0 °F 51% 29.92 in 10.0 mi SSW 9.2 mph - N/A   Clear
9:52 PM 34.0 °F 26.6 °F 21.9 °F 61% 29.93 in 10.0 mi SSW 9.2 mph - N/A   Clear
10:52 PM 35.1 °F 32.2 °F 21.0 °F 57% 29.94 in 10.0 mi SW 3.5 mph - N/A   Clear
11:52 PM 28.9 °F - 21.9 °F 75% 29.96 in 10.0 mi Calm Calm - N/A   Clear